Tracking 28126 objects as of 2-Oct-2023
HD Live streaming from Space Station
objects crossing your sky now

WESTAR 5

Track WESTAR 5 now!
WESTAR 5 is classified as:


NORAD ID: 13269
Int'l Code: 1982-058A
Perigee: 36,017.8 km
Apogee: 36,165.2 km
Inclination: 14.1 °
Period: 1,451.3 minutes
Semi major axis: 42462 km
RCS: 3.0486 m2 (large)
Launch date: June 9, 1982
Source: United States (US)
Launch site: AIR FORCE EASTERN TEST RANGE (AFETR)
Your satellite tracking list
Your tracking list is empty




NASA's NSSDC Master Catalog

Two Line Element Set (TLE):
1 13269U 82058A   23274.63174490 -.00000314  00000-0  00000-0 0  9995
2 13269  14.0607 344.3315 0017356 236.7205 168.2426  0.99219114109725
Source of the keplerian elements: AFSPC